This is the latest recevied weather packets stored in our database for station/object WA1TYB-13. If no packets are shown the sender has not sent any weather packets the latest 10 day(s).
| Time | Temp. | Humidity | Pressure | Rain* | Wind** | Luminosity | Snow |
|---|---|---|---|---|---|---|---|
| 1778076552 | 1.11° C | 69% | 1021.2 hPa | 0 mm | - | 56 W/m² | - |
| 1778076248 | 0.56° C | 70% | 1021.3 hPa | 0 mm | - | 150 W/m² | - |
| 1778075946 | 0° C | 71% | 1021.4 hPa | 0 mm | - | 70 W/m² | - |
| 1778075642 | 0° C | 72% | 1021.3 hPa | 0 mm | - | 44 W/m² | - |
| 1778075338 | -0.56° C | 74% | 1021.2 hPa | 0 mm | - | 108 W/m² | - |
| 1778075035 | -0.56° C | 75% | 1021.3 hPa | 0 mm | - | 37 W/m² | - |
| 1778074732 | -1.11° C | 76% | 1021.3 hPa | 0 mm | - | 63 W/m² | - |
| 1778074428 | -1.11° C | 76% | 1021.1 hPa | 0 mm | - | 35 W/m² | - |
| 1778074125 | -1.11° C | 76% | 1021.2 hPa | 0 mm | - | 35 W/m² | - |
| 1778073822 | -1.67° C | 77% | 1021.3 hPa | 0 mm | - | 32 W/m² | - |
| 1778073521 | -1.67° C | 76% | 1021.1 hPa | 0 mm | - | 31 W/m² | - |
| 1778073216 | -1.67° C | 74% | 1021.3 hPa | 0 mm | - | 30 W/m² | - |
| 1778072914 | -2.22° C | 75% | 1020.9 hPa | 0 mm | - | 28 W/m² | - |
| 1778072610 | -2.22° C | 76% | 1020.8 hPa | 0 mm | - | 34 W/m² | - |
| 1778072308 | -2.78° C | 76% | 1021.3 hPa | 0 mm | - | 26 W/m² | - |
| 1778072006 | -2.78° C | 78% | 1020.9 hPa | 0 mm | - | 23 W/m² | - |
| 1778071704 | -3.33° C | 79% | 1020.8 hPa | 0 mm | - | 22 W/m² | - |
| 1778071401 | -3.33° C | 79% | 1020.9 hPa | 0 mm | - | 18 W/m² | - |
| 1778071099 | -3.89° C | 80% | 1021.1 hPa | 0 mm | - | 16 W/m² | - |
| 1778070797 | -4.44° C | 79% | 1020.9 hPa | 0 mm | - | 14 W/m² | - |
| 1778070494 | -3.89° C | 79% | 1021.1 hPa | 0 mm | - | 12 W/m² | - |
| 1778070191 | -3.89° C | 80% | 1020.7 hPa | 0 mm | - | 10 W/m² | - |
| 1778069889 | -3.89° C | 80% | 1021.1 hPa | 0 mm | - | 6 W/m² | - |
| 1778069585 | -4.44° C | 79% | 1020.9 hPa | 0 mm | - | 3 W/m² | - |
| 1778069283 | -3.89° C | 79% | 1020.8 hPa | 0 mm | - | 2 W/m² | - |
* Rain latest hour (hover to see other rain measurements)
** Current wind speed in m/s (hover to see current wind gust speed)